Torna al catalogo

BUCCANEER MM

AttivoMilitareSSO
NORAD 63245·PAYLOAD·🇦🇺 Australia

Lanciato Mar 15, 2025 da Vandenberg Space Force Base

Loading…

Prossimi Passaggi (prossime 24 ore)

TLE

AggiornatoSource: Space-Track

Epoca: Sep 14, 2026, 22:16 UTC

1 63245U 25052AM  26257.92847212  .00002109  00000-0  19765-3 0  9994
2 63245  97.6721 147.0630 0002368 284.2636  75.8321 14.95073555 82005

Traccia BUCCANEER MM in tempo reale con AllMySat

Download on the App Store